STARLINK-38099, 69987

Orbit data source: Space-Track

STARLINK-38099, 69987 is a payload satellite owned by SpaceX/Seattle (US) in SSO that was launched on Sat, 11 Jul 2026 UTC via an FALCON 9 launch vehicle from the Air Force Western Test Range (AFWTR). Payload-class satellites include a variety of spacecraft equipped with specific instruments for various scientific and technological missions. These include communications satellites like Starlink; space stations such as the ISS; scientific satellites like the Hubble; Earth observation satellites from companies like Planet Labs, Umbra, and HawkEye 360; GPS; miniature CubeSats for education and research; and military/defense satellites.

Loading next visibility...
Identifier
69987, 2026-159N
Orbit
SSO
Country
Flag of USUS
Related business
Manufacturer
SpaceX/Seattle
Mission
Operational spacecraft
Bus & Motor
STARLINK V2MO, Unknown motor
Mass
575 kg wet, ~530 kg dry
Launch date (UTC)
2026-07-11 (2 months ago)
Launch vehicle
FALCON 9
Launch site
Air Force Western Test Range (AFWTR)
Object type
Payload
Rocket body
Debris
Shape & HBR
BOX + PAN, 17.7 m
Radar Cross Section
Large (>1 m²)

Expand to show TLE details & history
Last TLE update: 1 day ago

TLE from 1 day ago
0 STARLINK-38099
1 69987U 26159N   26264.01111183  .00036730  00000-0  67342-3 0  9992
2 69987  97.2873 105.7912 0001161  95.8098 264.3286 15.49207810 12528
Epoch: 2026-09-21T00:16Z
TLE epoch observation values (Epoch: 2026-09-21T00:16:00.062Z)
Latitude
0.00004°
Longitude
101.89387°
Altitude
422.254 km
Speed
7.658 km/s
True Right ascension
07h 03m 09s
True Declination
0° 00' 00"
Sunlit
Object was in daylight at epoch
Visualization orbit readout
Latitude
Unknown
Longitude
Unknown
Altitude
Unknown
Speed
Unknown
Apparent Right ascension
Unknown
Apparent Declination
Unknown
Sunlit
N/A
Visualization observer readout
Local Sidereal Time
17:24:03
Azimuth
Unknown
Elevation
Unknown
Doppler factor
Unknown
Orbital elements
Apogee altitude
416.753 km
Perigee altitude
415.175 km
Semi-major axis
6,794.101 km
Eccentricity
0.00012
Inclination
97.2873°
RAAN
105.7912°
Arg. of periapsis
95.8098°
True anomaly
264.31536°
Mean anomaly
264.3286°
Eccentric anomaly
264.32198°
Mean motion
3.87566 °/min
Orbital period
92.89 mins
BSTAR
0.00067342
Loading maneuver chart data...
Computing Atmospheric mass density...
Loading historical data...
Loading historical data...
Loading historical data...
Loading historical data...
Loading historical data...
Loading historical data...
Loading historical data...

Documentation

Showing up to 5 results
|